User: anonymous   Login
Location: Belfast
(54.5830°N, 5.9330°W)
Time: 20:22:07
(UTC+01:00)
Language:

Coronas F rocket - Orbit

View from above orbital plane
View from above orbital plane
View from above satellite
View from above satellite

Ground track
Ground track

The orbit data is extracted from the following two-line orbital elements,

1 26874U 01032B   16121.81725835 +.00023725 +00000-0 +13440-3 0  9997
2 26874 082.4610 333.6823 0007890 033.4065 326.7698 15.78855315828167
Epoch (UTC): 30 April 2016 19:36:51
Eccentricity: 0.0007890
inclination: 82.4610°
perigee height: 328 km
apogee height: 339 km
right ascension of ascending node: 333.6823°
argument of perigee: 33.4065°
revolutions per day: 15.78855315
mean anomaly at epoch: 326.7698°
orbit number at epoch: 82816

The dashed part of the orbit path shows where the satellite is in the earth's shadow,  

DLR